Location: Dennis Manor
(64.8292°N, 147.5397°W)
Time: 16:40:53
(UTC+00:00)

Envisat - Pass Details

Date: 28 October 2020
Orbit: 764 x 766 km, 98.1° (Epoch: 25 November)

Event Time Altitude Azimuth Distance (km) Brightness Sun altitude
Rises 04:22:37 0° 215° (SW) 3,232 6.7 -17.1°
Reaches altitude 10° 04:25:35 10° 233° (SW) 2,310 6.1 -17.5°
Maximum altitude 04:29:11 19° 278° (W) 1,767 5.9 -17.8°
Drops below altitude 10° 04:32:47 10° 323° (NW) 2,319 6.1 -18.2°
Sets 04:35:47 0° 341° (NNW) 3,250 6.6 -18.5°
